Miscellaneous Local Product
Issued by NWS North Platte, NE

Home | Current Version | Previous Version | Text Only | Print | Product List | Glossary On
Versions: 1 2 3 4 5 6 7 8 9 10 11 12 13 14 15 16 17 18 19 20 21 22 23 24 25 26 27 28 29 30 31 32 33 34 35 36 37 38 39 40 41 42 43 44 45 46 47 48 49 50
000
AXUS43 KLBF 030310
MISLBF


WESTERN AND NORTH CENTRAL NEBRASKA HOURLY WEATHER ROUNDUP
NATIONAL WEATHER SERVICE NORTH PLATTE NE
1000 PM CDT THU JUL 02 2015

***STATIONS NOT REPORTING VARIABLES SUCH AS SKY/WEATHER OR
PRESSURE ARE PROVIDED BY THE NEBRASKA DEPARTMENT OF
ROADS...RAWS...AND APRS NETWORKS...AND ARE NOT UNDER
NATIONAL WEATHER SERVICE QUALITY CONTROL***

...OBSERVATIONS IN AND NEAR THE EASTERN PANHANDLE OF NEBRASKA...

CITY           SKY/WX    TMP DP  RH WIND       PRES   REMARKS
PINE RIDGE     PTCLDY    68  59  73 N5        30.08R
CHADRON        CLEAR     70  61  73 N3        30.08R
ALLIANCE       CLEAR     66  61  84 NE7       30.10R
SIDNEY         CLEAR     69  58  67 E6        30.13R
WHITECLAY        N/A     67  61  81 CALM        N/A
CRESCENT LAKE    N/A     69  57  65 NE3         N/A
BIG SPRINGS      N/A     71  63  75 CALM        N/A
$$

...OBSERVATIONS IN NORTH CENTRAL NEBRASKA...

CITY           SKY/WX    TMP DP  RH WIND       PRES   REMARKS
VALENTINE      CLOUDY    69  61  75 NE3       30.03R
THEDFORD       CLEAR     70  60  71 NE5       30.04R
AINSWORTH      PTCLDY    66  63  89 CALM      30.03R
O`NEILL        MOCLDY    65  64  96 E5        30.01R FOG
ORD            CLEAR     66  62  87 E5        29.99R
BROKEN BOW     CLEAR     67  61  81 N3        30.01R
VALENTINE NWR    N/A     70  59  68 CALM        N/A
SPRINGVIEW       N/A     67  62  84 CALM        N/A
HALSEY           N/A     71  57  61 N3          N/A
BREWSTER         N/A     72  62  72 NE7         N/A
ROSE             N/A     77  77 100 E3          N/A
NEWPORT          N/A     67  66  96 CALM        N/A
SARGENT          N/A     69  64  84 CALM        N/A
CHAMBERS         N/A     65  62  90 E3          N/A
EWING            N/A     65  63  92 CALM        N/A
$$

...OBSERVATIONS IN SOUTHWEST NEBRASKA AND FAR NORTHEAST COLORADO...

CITY           SKY/WX    TMP DP  RH WIND       PRES   REMARKS
WRAY           FAIR      72  57  60 NE5       30.09R
HOLYOKE        FAIR      72  59  64 E3        30.10R
IMPERIAL       CLEAR     69  60  73 NE7       30.06R
OGALLALA       CLEAR     69  60  72 N6        30.07R
NORTH PLATTE   LGT RAIN  68  59  73 CALM      30.03R
MCCOOK         CLEAR     72  61  68 N6        30.01R
LEXINGTON      CLEAR     68  63  82 N6        30.00R
PAXTON           N/A     72  61  68 CALM        N/A
GOTHENBURG       N/A     74  55  51 NW3         N/A
CALLAWAY         N/A     70  61  72 N5          N/A
$$

...NORTH PLATTE AREA...

CITY           SKY/WX    TMP DP  RH WIND       PRES   REMARKS
AIRPORT        LGT RAIN  68  59  73 CALM      30.03R
DOWNTOWN         N/A     73  60  63 CALM        N/A
HILLCREST        N/A     70  59  68 NE6         N/A
$$

...SOME WEATHER OBSERVATIONS FROM AROUND THE REGION...

CITY           SKY/WX    TMP DP  RH WIND       PRES   REMARKS
DENVER         CLOUDY    62  58  86 E7        30.20F
LARAMIE        MOCLDY    62  52  69 S6        30.31R
CHEYENNE       PTCLDY    67  54  63 SW3       30.24R
SCOTTSBLUFF    CLOUDY    72  60  66 NE8       30.11R
RAPID CITY     CLEAR     67  59  75 NE9       30.07R
PIERRE         CLEAR     67  64  90 SE6       29.97R
WINNER         FAIR      70  62  76 SE5       29.99R
SIOUX FALLS    PTCLDY    64  59  83 SW3       29.99R
OMAHA          CLOUDY    67  60  78 E8        29.95S
GRAND ISLAND   MOCLDY    66  65  96 N7        29.99R
KANSAS CITY    MOCLDY    68  66  93 E6        29.93R FOG
WICHITA        PTCLDY    73  66  78 E5        29.92S
HAYS           CLOUDY    79  61  53 NE7       29.97R
LIBERAL        MOCLDY    72  63  73 SE5       30.04R
GOODLAND       PTCLDY    68  56  65 NE9       30.07R
$$



USA.gov is the U.S. government's official web portal to all federal, state and local government web resources and services.